Weather History for Jamestown, NY

Change the Weather History Date:

Monday, December 3, 2012

  Actual Average Record
Temperature  
Mean Temperature 10 °C -  
Max Temperature 13 °C 3 °C 18 °C (1982)
Min Temperature 7 °C -5 °C -20 °C (1976)
Degree Days  
Heating Degree Days 16    
Moisture  
Dew Point 9 °C    
Average Humidity 93    
Maximum Humidity 100    
Minimum Humidity 77    
Precipitation  
Precipitation 0.00 mm - - ()
Sea Level Pressure  
Sea Level Pressure 1021 hPa    
Wind  
Wind Speed 10 km/h (SSW)    
Max Wind Speed 19 km/h    
Max Gust Speed 26 km/h    
Visibility 6 kilometers    
Events      
Averages and records for this station are not official NWS values.
T = Trace of Precipitation, MM = Missing Value Source: NWS Daily Summary

Daily Weather History Graph

Daily Weather History Graph

Search for Another Location

Airport:

Trip Planner

Search our weather history database for the weather conditions in past years. The results will help you decide how hot, cold, wet, or windy it might be!

Date:

Astronomy

Dec. 03, 2012 Rise Set
Actual Time 7:28 AM EST 4:45 PM EST
Civil Twilight 6:57 AM EST 5:16 PM EST
Nautical Twilight 6:22 AM EST 5:51 PM EST
Astronomical Twilight 5:48 AM EST 6:25 PM EST
Moon 9:33 PM EST (12/3) 10:48 AM EST (12/3)
Length of Visible Light 10h 19m
Length of Day
9h 16m
Waning Gibbous, 78% of the Moon is Illuminated
Dec 3
Waning Gibbous
Dec 6
Last Quarter
Dec 13
New
Dec 20
First Quarter
Dec 28
Full

Hourly Weather History & Observations

Time (EST) Temp. Windchill Dew Point Humidity Pressure Visibility Wind Dir Wind Speed Gust Speed Precip Events Conditions
12:15 AM 10.0 °C - 9.0 °C 94% 1019.9 hPa 6.4 km WNW 9.3 km/h / 2.6 m/s - N/A   Overcast
12:35 AM 10.0 °C - 8.0 °C 87% 1019.9 hPa 6.4 km WNW 11.1 km/h / 3.1 m/s - N/A   Overcast
12:55 AM 9.0 °C - 8.0 °C 93% 1020.2 hPa 4.0 km WNW 14.8 km/h / 4.1 m/s - N/A   Overcast
1:15 AM 9.0 °C - 8.0 °C 93% 1020.2 hPa 4.0 km WNW 11.1 km/h / 3.1 m/s - N/A   Overcast
1:55 AM 9.0 °C - 8.0 °C 93% 1020.5 hPa 4.8 km WNW 11.1 km/h / 3.1 m/s - N/A   Overcast
2:15 AM 9.0 °C - 8.0 °C 93% 1020.9 hPa 2.4 km NNW 7.4 km/h / 2.1 m/s - N/A   Overcast
2:35 AM 8.0 °C 7.3 °C 8.0 °C 100% 1020.9 hPa 1.6 km NNW 5.6 km/h / 1.5 m/s - N/A   Overcast
2:55 AM 8.0 °C - 8.0 °C 100% 1020.9 hPa 1.2 km Calm Calm - N/A   Overcast
3:15 AM 8.0 °C 6.8 °C 8.0 °C 100% 1021.2 hPa 1.6 km NNW 7.4 km/h / 2.1 m/s - N/A   Overcast
3:35 AM 8.0 °C 7.3 °C 7.0 °C 93% 1021.2 hPa 0.4 km North 5.6 km/h / 1.5 m/s - N/A   Overcast
3:55 AM 8.0 °C - 7.0 °C 93% 1021.2 hPa 0.4 km North - - N/A   Overcast
4:15 AM 8.0 °C 7.3 °C 7.0 °C 93% 1021.6 hPa 0.4 km North 5.6 km/h / 1.5 m/s - N/A   Overcast
4:35 AM 7.0 °C 6.2 °C 7.0 °C 100% 1021.2 hPa 0.4 km NNE 5.6 km/h / 1.5 m/s - N/A   Overcast
4:55 AM 7.0 °C 5.7 °C 7.0 °C 100% 1021.6 hPa 0.4 km North 7.4 km/h / 2.1 m/s - N/A   Overcast
5:15 AM 7.0 °C 6.2 °C 6.0 °C 93% 1021.6 hPa 0.4 km North 5.6 km/h / 1.5 m/s - N/A   Overcast
5:35 AM 7.0 °C 6.2 °C 7.0 °C 100% 1021.9 hPa 0.4 km North 5.6 km/h / 1.5 m/s - N/A   Overcast
5:55 AM 7.0 °C - 7.0 °C 100% 1021.9 hPa 0.4 km Calm Calm - N/A   Overcast
6:15 AM 7.0 °C - 7.0 °C 100% 1022.2 hPa 0.4 km Calm Calm - N/A   Overcast
6:35 AM 7.0 °C - 6.0 °C 93% 1022.2 hPa 0.4 km Calm Calm - N/A   Overcast
6:55 AM 7.0 °C 5.7 °C 7.0 °C 100% 1022.2 hPa 0.4 km South 7.4 km/h / 2.1 m/s - N/A   Overcast
7:15 AM 7.0 °C 5.2 °C 6.0 °C 93% 1022.6 hPa 0.4 km South 9.3 km/h / 2.6 m/s - N/A   Overcast
7:35 AM 7.0 °C 4.5 °C 6.0 °C 93% 1022.9 hPa 0.4 km South 13.0 km/h / 3.6 m/s - N/A   Overcast
7:55 AM 7.0 °C 5.7 °C 7.0 °C 100% 1022.9 hPa 0.4 km South 7.4 km/h / 2.1 m/s - N/A   Overcast
8:15 AM 8.0 °C 6.4 °C 7.0 °C 93% 1022.9 hPa 0.4 km SSW 9.3 km/h / 2.6 m/s - N/A   Overcast
8:35 AM 8.0 °C 7.3 °C 7.0 °C 93% 1022.9 hPa 1.6 km South 5.6 km/h / 1.5 m/s - N/A   Overcast
8:55 AM 8.0 °C 6.8 °C 7.0 °C 93% 1022.9 hPa 0.4 km South 7.4 km/h / 2.1 m/s - N/A   Overcast
9:15 AM 8.0 °C 7.3 °C 8.0 °C 100% 1022.9 hPa 1.2 km South 5.6 km/h / 1.5 m/s - N/A   Overcast
9:35 AM 9.0 °C - 8.0 °C 93% 1022.9 hPa 0.4 km South 9.3 km/h / 2.6 m/s - N/A   Overcast
10:15 AM 9.0 °C - 9.0 °C 100% 1022.9 hPa 0.4 km SSW 9.3 km/h / 2.6 m/s - N/A   Overcast
10:35 AM 9.0 °C - 9.0 °C 100% 1022.9 hPa 0.8 km South 9.3 km/h / 2.6 m/s - N/A   Overcast
10:55 AM 10.0 °C - 9.0 °C 94% 1022.9 hPa 2.0 km South 9.3 km/h / 2.6 m/s - N/A   Overcast
11:15 AM 10.0 °C - 9.0 °C 94% 1022.6 hPa 4.0 km SSW 9.3 km/h / 2.6 m/s - N/A   Overcast
11:35 AM 10.0 °C - 9.0 °C 94% 1022.2 hPa 4.8 km SSW 7.4 km/h / 2.1 m/s - N/A   Overcast
11:55 AM 11.0 °C - 9.0 °C 88% 1021.9 hPa 6.4 km SW 7.4 km/h / 2.1 m/s - N/A   Overcast
12:15 PM 11.0 °C - 10.0 °C 94% 1021.6 hPa 6.4 km South 7.4 km/h / 2.1 m/s - N/A   Overcast
12:35 PM 11.0 °C - 10.0 °C 94% 1021.6 hPa 8.0 km South 11.1 km/h / 3.1 m/s - N/A   Overcast
12:55 PM 12.0 °C - 10.0 °C 88% 1021.2 hPa 8.0 km South 9.3 km/h / 2.6 m/s - N/A   Overcast
1:15 PM 12.0 °C - 9.0 °C 82% 1021.2 hPa 9.7 km South 11.1 km/h / 3.1 m/s - N/A   Overcast
1:35 PM 12.0 °C - 9.0 °C 82% 1021.2 hPa 11.3 km South 13.0 km/h / 3.6 m/s - N/A   Overcast
1:55 PM 12.0 °C - 9.0 °C 82% 1020.9 hPa 12.9 km SSW 9.3 km/h / 2.6 m/s - N/A   Overcast
2:15 PM 12.0 °C - 9.0 °C 82% 1020.9 hPa 14.5 km South 14.8 km/h / 4.1 m/s - N/A   Overcast
2:35 PM 12.0 °C - 9.0 °C 82% 1020.9 hPa 16.1 km South 11.1 km/h / 3.1 m/s - N/A   Overcast
2:55 PM 12.0 °C - 9.0 °C 82% 1020.9 hPa 16.1 km South 11.1 km/h / 3.1 m/s - N/A   Overcast
3:15 PM 13.0 °C - 9.0 °C 77% 1020.5 hPa 16.1 km South 14.8 km/h / 4.1 m/s - N/A   Mostly Cloudy
3:35 PM 12.0 °C - 9.0 °C 82% 1020.5 hPa 16.1 km South 14.8 km/h / 4.1 m/s - N/A   Mostly Cloudy
3:55 PM 12.0 °C - 10.0 °C 88% 1020.9 hPa 16.1 km South 13.0 km/h / 3.6 m/s - N/A   Overcast
4:15 PM 12.0 °C - 10.0 °C 88% 1020.9 hPa 16.1 km South 16.7 km/h / 4.6 m/s - N/A   Overcast
4:35 PM 12.0 °C - 10.0 °C 88% 1020.9 hPa 16.1 km South 13.0 km/h / 3.6 m/s - N/A   Overcast
4:55 PM 12.0 °C - 10.0 °C 88% 1021.2 hPa 14.5 km South 11.1 km/h / 3.1 m/s - N/A   Overcast
5:15 PM 12.0 °C - 10.0 °C 88% 1021.2 hPa 16.1 km South 14.8 km/h / 4.1 m/s - N/A   Overcast
5:35 PM 12.0 °C - 10.0 °C 88% 1020.9 hPa 11.3 km South 11.1 km/h / 3.1 m/s - N/A   Overcast
5:55 PM 12.0 °C - 10.0 °C 88% 1021.2 hPa 12.9 km SSW 9.3 km/h / 2.6 m/s - N/A   Overcast
6:15 PM 12.0 °C - 11.0 °C 94% 1020.9 hPa 11.3 km South 11.1 km/h / 3.1 m/s - N/A   Overcast
6:35 PM 12.0 °C - 11.0 °C 94% 1020.9 hPa 9.7 km South 13.0 km/h / 3.6 m/s - N/A   Overcast
6:55 PM 12.0 °C - 11.0 °C 94% 1020.5 hPa 8.0 km South 14.8 km/h / 4.1 m/s - N/A   Overcast
7:15 PM 12.0 °C - 11.0 °C 94% 1020.9 hPa 8.0 km South 11.1 km/h / 3.1 m/s - N/A   Overcast
7:35 PM 12.0 °C - 11.0 °C 94% 1020.9 hPa 8.0 km South 13.0 km/h / 3.6 m/s - N/A   Overcast
7:55 PM 12.0 °C - 11.0 °C 94% 1020.9 hPa 8.0 km South 14.8 km/h / 4.1 m/s - N/A   Overcast
8:15 PM 12.0 °C - 11.0 °C 94% 1020.9 hPa 8.0 km South 14.8 km/h / 4.1 m/s - N/A   Overcast
8:35 PM 12.0 °C - 11.0 °C 94% 1020.9 hPa 8.0 km South 13.0 km/h / 3.6 m/s - N/A   Overcast
8:55 PM 12.0 °C - 12.0 °C 100% 1020.5 hPa 4.8 km South 14.8 km/h / 4.1 m/s - N/A   Overcast
9:15 PM 12.0 °C - 12.0 °C 100% 1020.2 hPa 2.8 km South 14.8 km/h / 4.1 m/s - N/A   Overcast
9:35 PM 12.0 °C - 12.0 °C 100% 1020.2 hPa 2.4 km South 18.5 km/h / 5.1 m/s 25.9 km/h / 7.2 m/s N/A   Overcast
9:55 PM 12.0 °C - 12.0 °C 100% 1019.9 hPa 3.2 km South 16.7 km/h / 4.6 m/s - N/A   Overcast
10:15 PM 13.0 °C - 12.0 °C 94% 1019.9 hPa 4.0 km South 16.7 km/h / 4.6 m/s - N/A   Overcast
10:35 PM 13.0 °C - 12.0 °C 94% 1019.9 hPa 4.8 km South 16.7 km/h / 4.6 m/s - N/A   Overcast
10:55 PM 13.0 °C - 12.0 °C 94% 1019.9 hPa 8.0 km South 14.8 km/h / 4.1 m/s - N/A   Overcast
11:15 PM 13.0 °C - 12.0 °C 94% 1019.9 hPa 8.0 km South 13.0 km/h / 3.6 m/s - N/A   Overcast
11:35 PM 13.0 °C - 12.0 °C 94% 1019.9 hPa 9.7 km South 13.0 km/h / 3.6 m/s - N/A   Overcast
11:55 PM 13.0 °C - 12.0 °C 94% 1019.9 hPa 11.3 km South 13.0 km/h / 3.6 m/s - N/A   Overcast